Find Starlink 2330

NORAD ID: 47874 Int'l Des: 2021-021 Owner: SPXS Country: US Constellation: starlink operational
LEOCIRCULARSTARLINK_TYPE

現在のビュー

3D地球を読み込み中...

About Starlink 2330

Starlink 2330 (NORAD 47874) is a starlink constellation satellite (v1.0) launched Mar 14, 2021 by SPXS of US. It operates in LEO, CIRCULAR, STARLINK_TYPE orbit with a mass of 260.00 kg.

Starlink 2330について

説明を読み込み中...

次回通過

Passes for default location (London). Set your location on the main map for personalized predictions.

高度履歴

Loading altitude history...

軌道要素

1 47874C 21021Q 26173.83104167 .00010874 00000+0 28339-3 0 1736
2 47874 53.1425 85.7480 0004539 85.5858 279.0185 15.38273679 18
Epoch: Jun 22, 2026 • Age: 31 hours

現在のステータス

高度 469.8 km
速度 7.63 km/s
衛星直下点 -46.70°S, 72.69°E
打ち上げ日 Mar 14, 2021
運用期間 5.2 years
タイプ internet

技術仕様

分類 Payload
質量 260.00 kg
乾燥質量 248.00 kg
総質量 260.00 kg
長さ 0.20 m
直径 2.80 m
スパン 9.00 m
形状 Box + pan
製造者 SPXS
バスタイプ Starlink
フェーズステータス In Orbit
所有者/国 SPXS/US

Most Searched